[[{"header":{"parameterUnit":"m.s-1","parameterCategory":1,"la1":30.2991,"la2":30.254,"lo1":-89.0895,"lo2":-89.0444,"dy":0.0017,"dx":0.0017,"nx":28,"ny":28,"refTime":"2026-02-17T09:00:00:Z","depth":0,"parameterNumber":2,"parameterNumberName":"U-component_of_WINDS"},"data":[0,0,0,0,0,0,0,0,0,0,0,0,0,0,0,0,0,0,0,0,0,0,0,0,0,0,0,0,0,0,0,0,0,0,0,0,0,0,0,0,0,0,0,0,0,0,0,0,0,0,0,0,0,0,0,0,0,0,-1.3214,-1.3214,0,-1.3243,-1.3243,-1.3243,-1.3257,-1.3257,-1.3257,-1.3257,-1.3284,-1.3285,-1.3285,0,0,0,0,0,0,0,0,0,0,0,0,0,-1.3169,-1.317,-1.3214,-1.3214,-1.3215,-1.3243,-1.3243,-1.3243,-1.3257,-1.3257,-1.3257,-1.3257,-1.3284,-1.3285,-1.3285,0,0,0,0,0,0,0,0,0,0,0,0,0,-1.3192,-1.317,-1.3214,-1.3225,-1.3226,-1.3242,-1.3243,-1.3243,-1.3257,-1.3257,-1.3257,-1.3257,-1.3283,-1.3285,-1.3286,-1.3293,0,0,-1.3289,-1.329,0,0,0,0,0,0,0,0,-1.3191,-1.3194,-1.3223,-1.3224,-1.3225,-1.3246,-1.3237,-1.326,-1.3257,-1.3245,-1.3257,-1.3256,-1.3271,-1.3273,-1.3279,-1.3294,-1.3295,-1.3289,-1.329,-1.329,-1.3291,0,0,0,0,0,0,0,-1.3189,-1.3193,-1.3225,-1.3223,-1.3225,-1.3228,-1.3231,-1.3242,-1.3258,-1.3246,-1.3247,-1.325,-1.3272,-1.3278,-1.3279,-1.3296,-1.3289,-1.329,-1.3291,-1.3291,-1.3319,-1.332,0,0,0,0,0,0,-1.3186,-1.3191,-1.3224,-1.3226,-1.3208,-1.3228,-1.3232,-1.3239,-1.3258,-1.326,-1.325,-1.3251,-1.3276,-1.3278,-1.328,-1.3291,-1.329,-1.3291,-1.3292,-1.3319,-1.3319,-1.332,0,0,0,0,0,0,-1.3185,-1.3189,-1.3223,-1.3209,-1.3214,-1.3229,-1.3237,-1.324,-1.3246,-1.3261,-1.3264,-1.3253,-1.3276,-1.3279,-1.329,-1.3292,-1.3292,-1.3293,-1.3319,-1.3319,-1.332,-1.3311,0,0,0,0,0,0,-1.3184,-1.3189,-1.3192,-1.3209,-1.3214,-1.3232,-1.3237,-1.3241,-1.3248,-1.3249,-1.3264,-1.3267,-1.3276,-1.3288,-1.3291,-1.3293,-1.3294,-1.3319,-1.3319,-1.3319,-1.3311,-1.331,-1.331,0,0,0,0,0,-1.3182,-1.3188,-1.3192,-1.3196,-1.3219,-1.3233,-1.3236,-1.3246,-1.3248,-1.3251,-1.3261,-1.3267,-1.3291,-1.3289,-1.3293,-1.3295,-1.3319,-1.3319,-1.3319,-1.3311,-1.3311,-1.331,0,0,0,0,0,0,-1.3169,-1.319,-1.3195,-1.3206,-1.3218,-1.3235,-1.3239,-1.3245,-1.3256,-1.3256,-1.3269,-1.3272,-1.3282,-1.329,-1.3287,-1.3304,-1.3306,-1.3307,-1.3298,-1.3298,-1.3297,-1.3295,-1.3295,0,0,0,0,0,-1.3168,-1.3178,-1.3195,-1.3203,-1.3209,-1.3223,-1.3229,-1.3237,-1.3249,-1.3254,-1.3264,-1.3276,-1.3286,-1.3292,-1.3303,-1.3312,-1.3316,-1.3316,-1.3315,-1.3315,-1.3315,-1.3321,-1.3322,-1.332,-1.332,-1.332,0,0,-1.3165,-1.3177,-1.3183,-1.3201,-1.3211,-1.3221,-1.3227,-1.3237,-1.3244,-1.3255,-1.3266,-1.3275,-1.3288,-1.3299,-1.3304,-1.3305,-1.3317,-1.3315,-1.3315,-1.3315,-1.3322,-1.3322,-1.3322,-1.332,-1.332,-1.332,0,0,-1.3164,-1.3174,-1.3183,-1.3193,-1.3208,-1.3217,-1.3219,-1.3236,-1.3242,-1.3254,-1.3262,-1.3271,-1.3288,-1.3298,-1.3305,-1.3309,-1.3314,-1.3312,-1.3309,-1.3315,-1.3315,-1.3316,-1.3317,-1.3317,-1.3312,-1.3312,-1.3312,0,-1.3158,-1.3173,-1.3186,-1.3196,-1.3204,-1.3215,-1.3223,-1.3232,-1.3249,-1.3254,-1.3256,-1.3279,-1.3288,-1.3301,-1.3303,-1.3308,-1.331,-1.331,-1.3314,-1.3315,-1.3315,-1.3317,-1.3317,-1.3312,-1.3312,-1.3312,-1.3312,0,-1.3165,-1.3176,-1.3181,-1.3198,-1.3207,-1.3216,-1.3229,-1.3236,-1.3243,-1.3253,-1.3265,-1.3277,-1.329,-1.3294,-1.33,-1.3308,-1.3309,-1.3312,-1.3314,-1.3315,-1.3316,-1.3317,-1.3311,-1.3311,-1.3311,-1.3311,0,0,-1.3156,-1.3181,-1.3183,-1.3191,-1.3209,-1.3217,-1.3227,-1.3241,-1.3247,-1.3258,-1.3267,-1.3282,-1.3286,-1.3293,-1.3301,-1.3306,-1.3309,-1.3309,-1.331,-1.3309,-1.3319,-1.3316,-1.3316,-1.3313,-1.3313,-1.3313,-1.3317,0,-1.3158,-1.3176,-1.3188,-1.3201,-1.3211,-1.3223,-1.3231,-1.3243,-1.3252,-1.3262,-1.3272,-1.3282,-1.3286,-1.3291,-1.3297,-1.3307,-1.3311,-1.3307,-1.332,-1.3321,-1.3317,-1.3317,-1.3314,-1.3317,-1.3318,-1.3318,-1.3318,0,-1.3162,-1.3174,-1.3189,-1.3207,-1.3211,-1.3219,-1.3233,-1.3242,-1.3255,-1.3262,-1.3271,-1.3279,-1.329,-1.3292,-1.3306,-1.3304,-1.331,-1.3316,-1.3316,-1.3318,-1.3319,-1.3318,-1.3318,-1.3318,-1.3319,-1.3319,-1.3319,0,-1.3154,-1.3174,-1.3186,-1.3193,-1.3213,-1.3218,-1.3227,-1.3241,-1.3249,-1.3261,-1.3266,-1.3279,-1.3286,-1.3295,-1.3307,-1.3307,-1.332,-1.3323,-1.3326,-1.3325,-1.3327,-1.3327,-1.3328,-1.3332,-1.3332,-1.3332,-1.3332,0,-1.3154,-1.3162,-1.3183,-1.319,-1.3199,-1.3213,-1.3223,-1.3232,-1.3245,-1.3254,-1.3264,-1.3272,-1.3287,-1.3297,-1.3306,-1.3317,-1.332,-1.3325,-1.3327,-1.3324,-1.3323,-1.3328,-1.3328,-1.3332,-1.3332,-1.3332,-1.3332,0,-1.3146,-1.316,-1.3174,-1.3193,-1.3198,-1.3204,-1.322,-1.3227,-1.3238,-1.3249,-1.3252,-1.3268,-1.328,-1.3293,-1.3309,-1.3315,-1.3326,-1.3329,-1.3321,-1.3323,-1.3325,-1.3324,-1.3328,-1.333,-1.3332,-1.3332,-1.3332,0,-1.3145,-1.3152,-1.3173,-1.318,-1.3189,-1.32,-1.3208,-1.3222,-1.323,-1.3247,-1.3252,-1.3266,-1.3277,-1.3296,-1.3309,-1.3321,-1.3325,-1.3326,-1.3327,-1.3323,-1.3325,-1.3324,-1.3325,-1.3325,-1.3325,-1.3325,-1.3325,0,-1.3142,-1.3149,-1.3161,-1.3176,-1.3186,-1.3198,-1.321,-1.3215,-1.3231,-1.324,-1.3253,-1.3262,-1.3279,-1.3292,-1.3307,-1.3316,-1.3323,-1.3324,-1.3326,-1.3322,-1.3317,-1.332,-1.332,-1.3324,-1.3324,-1.3324,-1.3324,-1.3324,-1.3138,-1.3145,-1.3161,-1.3174,-1.3185,-1.3196,-1.3204,-1.3216,-1.3227,-1.3243,-1.3251,-1.3264,-1.3278,-1.3298,-1.3307,-1.3317,-1.3319,-1.3321,-1.3322,-1.3322,-1.3321,-1.3316,-1.332,-1.332,-1.332,-1.332,-1.332,0,-1.3136,-1.3147,-1.3159,-1.3176,-1.3186,-1.3193,-1.3207,-1.3215,-1.3227,-1.324,-1.3252,-1.3267,-1.328,-1.3294,-1.3308,-1.3314,-1.3317,-1.3317,-1.3316,-1.3318,-1.3318,-1.3316,-1.3314,-1.3314,-1.3314,-1.3314,-1.3314,-1.3314,-1.3136,-1.3148,-1.3157,-1.3175,-1.3185,-1.3199,-1.3207,-1.3217,-1.3228,-1.3245,-1.3256,-1.3265,-1.3279,-1.3294,-1.3306,-1.331,-1.3315,-1.3313,-1.3318,-1.3318,-1.3318,-1.3319,-1.3316,-1.3314,-1.3314,-1.3317,-1.3317,-1.3317]},{"header":{"parameterUnit":"m.s-1","parameterCategory":1,"la1":30.2991,"la2":30.254,"lo1":-89.0895,"lo2":-89.0444,"dy":0.0017,"dx":0.0017,"nx":28,"ny":28,"refTime":"2026-02-17T09:00:00:Z","depth":0,"parameterNumber":3,"parameterNumberName":"V-component_of_WINDS"},"data":[0,0,0,0,0,0,0,0,0,0,0,0,0,0,0,0,0,0,0,0,0,0,0,0,0,0,0,0,0,0,0,0,0,0,0,0,0,0,0,0,0,0,0,0,0,0,0,0,0,0,0,0,0,0,0,0,0,0,3.9795,3.9796,0,3.9873,3.9874,3.9875,3.9864,3.9863,3.9861,3.986,3.9936,3.9939,3.9943,0,0,0,0,0,0,0,0,0,0,0,0,0,3.9632,3.9635,3.9795,3.9796,3.9797,3.9873,3.9874,3.9875,3.9864,3.9862,3.9861,3.9859,3.9935,3.9939,3.9943,0,0,0,0,0,0,0,0,0,0,0,0,0,3.9705,3.9636,3.9795,3.9801,3.9802,3.9873,3.9874,3.9875,3.9864,3.9862,3.9861,3.9859,3.9934,3.9939,3.9943,4.0012,0,0,3.9958,3.996,0,0,0,0,0,0,0,0,3.9701,3.9711,3.9799,3.9801,3.9802,3.9857,3.9844,3.9921,3.9865,3.9841,3.986,3.9858,3.9911,3.9918,3.9937,4.0016,4.0019,3.9959,3.9962,3.9964,3.9965,0,0,0,0,0,0,0,3.9696,3.9708,3.9826,3.98,3.9802,3.9798,3.9806,3.9859,3.9886,3.9843,3.9842,3.9852,3.9912,3.9932,3.9938,4.002,3.9959,3.9963,3.9966,3.9968,4.0158,4.016,0,0,0,0,0,0,3.969,3.9704,3.9823,3.9828,3.9746,3.9802,3.9812,3.9841,3.9885,3.989,3.9853,3.9851,3.9925,3.9933,3.9941,4.0024,3.9964,3.9968,3.9971,4.0156,4.0158,4.0161,0,0,0,0,0,0,3.9687,3.9701,3.982,3.9766,3.9781,3.9807,3.984,3.9844,3.9864,3.9893,3.9897,3.9869,3.9923,3.9934,3.9994,4.0026,3.997,3.9975,4.0153,4.0156,4.0159,4.0191,0,0,0,0,0,0,3.9682,3.97,3.9727,3.9767,3.9784,3.9874,3.9842,3.9847,3.9873,3.9871,3.9909,3.9914,3.9923,3.9987,3.9999,4.0032,3.9979,4.015,4.0155,4.0158,4.0187,4.0194,4.0201,0,0,0,0,0,3.9676,3.9733,3.9729,3.9743,3.9819,3.9876,3.9886,3.9896,3.9876,3.9903,3.9921,3.9913,4.0021,3.9994,4.0007,4.0042,4.0148,4.0153,4.0158,4.0184,4.0193,4.0201,0,0,0,0,0,0,3.9696,3.9738,3.9734,3.9805,3.9837,3.9874,3.9909,3.9905,3.9943,3.9939,3.9948,3.9957,4.0018,4.0035,4.0005,4.0109,4.0081,4.0089,4.0096,4.0105,4.0112,4.0107,3.9983,0,0,0,0,0,3.9708,3.9752,3.9786,3.9846,3.9862,3.9883,3.9908,3.9913,3.9945,3.9959,3.9981,4.0013,4.0053,4.008,4.0119,4.0189,4.0196,4.0219,4.0226,4.0231,4.0238,4.0275,4.0285,4.0176,4.0176,4.0176,0,0,3.9735,3.9763,3.9791,3.985,3.9876,3.992,3.9894,3.9942,3.9974,3.9965,4.0025,4.0042,4.0077,4.0142,4.0172,4.0158,4.027,4.0238,4.0242,4.0246,4.0281,4.0291,4.0301,4.018,4.0179,4.0178,0,0,3.9806,3.9832,3.9884,3.991,3.9949,3.9962,3.9974,4.0012,4.0023,4.0082,4.0076,4.0114,4.0184,4.0209,4.0231,4.0309,4.0303,4.0321,4.0359,4.0395,4.0403,4.0411,4.0439,4.0448,4.0328,4.0328,4.0328,0,3.9834,3.9902,3.9911,3.996,3.9986,3.998,4.0032,4.0056,4.0105,4.0122,4.0106,4.0194,4.0217,4.0287,4.0306,4.0324,4.0338,4.0318,4.0401,4.0409,4.0416,4.0443,4.0453,4.033,4.033,4.033,4.0329,0,3.9934,3.998,4.0017,4.0066,4.0096,4.0146,4.0161,4.019,4.0191,4.0205,4.0264,4.0292,4.0336,4.0352,4.0354,4.0423,4.0413,4.0399,4.0372,4.0429,4.0454,4.0464,4.0333,4.0332,4.0332,4.0331,0,0,4.0022,4.0074,4.0087,4.0109,4.015,4.0186,4.0234,4.0278,4.0302,4.0335,4.0375,4.0434,4.0421,4.0446,4.045,4.0481,4.0541,4.0463,4.0464,4.0477,4.0617,4.0628,4.064,4.0536,4.0538,4.0539,4.0614,0,4.0097,4.0185,4.0194,4.0272,4.0314,4.0308,4.035,4.0379,4.0393,4.0429,4.0443,4.0485,4.0465,4.048,4.051,4.0527,4.0569,4.0521,4.0572,4.0574,4.0565,4.0653,4.0665,4.0734,4.0624,4.0625,4.0627,0,4.0198,4.0235,4.0317,4.0352,4.037,4.0408,4.0448,4.0483,4.0515,4.0522,4.0549,4.0548,4.0596,4.0565,4.0631,4.0599,4.0619,4.063,4.0633,4.0639,4.0605,4.0661,4.0757,4.0767,4.0642,4.0641,4.064,0,4.0254,4.0324,4.0382,4.0401,4.0442,4.0469,4.0487,4.0516,4.0542,4.0576,4.0592,4.0631,4.0653,4.0682,4.0691,4.0668,4.0756,4.0726,4.0763,4.0762,4.0783,4.0782,4.0883,4.0795,4.0795,4.0794,4.0794,0,4.0339,4.0389,4.0408,4.0444,4.05,4.0508,4.0562,4.0579,4.0605,4.0642,4.0638,4.0673,4.0683,4.0719,4.0725,4.0778,4.0788,4.0794,4.0796,4.0795,4.0795,4.081,4.0806,4.0797,4.0797,4.0796,4.0795,0,4.0412,4.0427,4.049,4.0523,4.0533,4.0572,4.06,4.0633,4.0645,4.0693,4.0704,4.0723,4.0765,4.0777,4.0827,4.0831,4.0893,4.089,4.0883,4.0884,4.092,4.0916,4.1036,4.1052,4.0952,4.0953,4.0954,0,4.0466,4.0504,4.0542,4.0567,4.0587,4.0628,4.0653,4.0662,4.0688,4.0726,4.0755,4.0796,4.083,4.0897,4.0915,4.0952,4.095,4.0989,4.0956,4.0954,4.0951,4.0949,4.0952,4.0996,4.0997,4.0998,4.0998,0,4.0559,4.0564,4.0602,4.0643,4.0674,4.0706,4.0736,4.0756,4.0769,4.0798,4.0842,4.0868,4.0919,4.096,4.0998,4.1014,4.1008,4.1008,4.1019,4.102,4.1015,4.1018,4.0901,4.1006,4.1005,4.1005,4.1004,4.1004,4.0625,4.0658,4.069,4.0732,4.0756,4.0784,4.0817,4.0833,4.087,4.0913,4.0914,4.0961,4.0989,4.104,4.1058,4.1093,4.1082,4.1097,4.1101,4.1105,4.1108,4.1008,4.11,4.11,4.11,4.11,4.1099,0,4.0718,4.0738,4.0776,4.0819,4.0852,4.0843,4.0876,4.0903,4.0945,4.0972,4.1005,4.1054,4.1093,4.1113,4.1151,4.1175,4.1173,4.1185,4.1184,4.1188,4.1116,4.1104,4.1186,4.1186,4.1186,4.1186,4.1186,4.1186,4.0771,4.0828,4.0836,4.0903,4.0922,4.0969,4.0988,4.1013,4.1035,4.109,4.1123,4.1135,4.1159,4.1198,4.1233,4.1238,4.1252,4.1265,4.1268,4.1202,4.1193,4.1185,4.1173,4.1268,4.1268,4.1337,4.1337,4.1338]}]]